Regional Weather Roundup
Issued by NWS

Home | Current Version | Previous Version | Text Only | Print | Product List | Glossary On
Versions: 1 2 3 4 5 6 7 8 9 10 11 12 13 14 15 16 17 18 19 20 21 22 23 24 25 26 27 28 29 30 31 32 33 34 35 36 37 38 39 40 41 42 43 44 45 46 47 48 49 50
000
ASUS44 KLUB 212110
RWRTX
WEST TEXAS WEATHER ROUNDUP
NATIONAL WEATHER SERVICE LUBBOCK TX
300 PM CST TUE FEB 21 2017

NOTE: "FAIR" INDICATES FEW OR NO CLOUDS BELOW 12,000 FEET WITH NO
SIGNIFICANT WEATHER AND/OR OBSTRUCTIONS TO VISIBILITY.

TXZ004-006>008-010-012-014-016-OKZ002-212200-
TEXAS PANHANDLE/OKLAHOMA PANHANDLE

CITY           SKY/WX    TMP DP  RH WIND       PRES   REMARKS
AMARILLO       SUNNY     75  17  11 MISG      30.04F
BORGER         SUNNY     75  16  10 VRB3      30.01F
CANADIAN       SUNNY     78  15   9 NW12      29.98F
DALHART        SUNNY     78  20  11 CALM      30.04F
DUMAS          SUNNY     74  20  13 W5        30.03F
GUYMON         SUNNY     79  19  10 VRB6      29.97F
HEREFORD       SUNNY     74  23  14 CALM      30.06F
PAMPA          SUNNY     77  18  11 NW8       30.03F
PERRYTON       SUNNY     78  18  10 W10G17    29.98F
$$

TXZ026-029-035-045-048-212200-
SOUTHERN PANHANDLE/SOUTH PLAINS/ROLLING PLAINS

CITY           SKY/WX    TMP DP  RH WIND       PRES   REMARKS
CHILDRESS      SUNNY     76  26  15 N3        30.00F
SEMINOLE       SUNNY     77  32  19 NW7       30.07F
LUBBOCK        SUNNY     74  27  17 S7        30.04F
PLAINVIEW      SUNNY     73  21  14 W5        30.04F
SNYDER         SUNNY     74  26  17 S6        30.04F
$$

TXZ052-054-060>062-072-078-127-140-154-169-212200-
PERMIAN BASIN/CONCHO VALLEY/BIG COUNTRY/EDWARDS PLATEAU

CITY           SKY/WX    TMP DP  RH WIND       PRES   REMARKS
ABILENE        SUNNY     75  31  19 NW7       30.01F
BIG SPRING     SUNNY     76  32  20 SW12G23   30.06F
BROWNWOOD      SUNNY     75  34  22 NW10      29.99F
JUNCTION       SUNNY     79  35  20 NW8G20    30.01F
MIDLAND        SUNNY     81  31  16 W15G21    30.04F
ODESSA         SUNNY     80  29  15 W12G24    30.06F
SAN ANGELO     SUNNY     80  36  20 W12       30.02F
SONORA         SUNNY     79  34  19 NW10G21   30.08F
SWEETWATER     SUNNY     75  20  12 W5        30.06F
WINK           SUNNY     81  26  13 NW9       30.05F
$$

TXZ055-058-074-075-080-082-212200-
FAR WEST/SOUTHWEST MOUNTAINS/TRANS PECOS

CITY           SKY/WX    TMP DP  RH WIND       PRES   REMARKS
ALPINE         SUNNY     78  25  14 SW15      30.22F
DRYDEN           N/A     82  29  14 SW23G29   30.02F
EL PASO        SUNNY     71  31  22 CALM      30.21F
FORT STOCKTON  SUNNY     83  25  12 NW16      30.07F
GUADALUPE PASS SUNNY     67  31  26 SW29G37   30.22F
MARFA          SUNNY     73  28  18 W21       30.22F
PECOS          SUNNY     83  30  14 W15G21    30.05F
PRESIDIO       FAIR      76  29  17 SW9       30.18F
$$

TXZ014-016-019-021>030-083-212200
TEXAS TECH WEST TEXAS MESONET/TEXAS PANHANDLE/NORTHERN SOUTH PLAINS

CITY           SKY/WX    TMP DP  RH WIND       PRES   REMARKS
ABERNATHY 5ENE   N/A     74  26  17 SW3       30.05F
AMARILLO 9NNE    N/A     76  21  12 S6        30.02F
AMARILLO 7SSE    N/A     76  19  12 S5        30.05F
AMHERST 1NE      N/A     76  24  14 E1        30.05F
BOOTLEG 11WNW    N/A     75  22  13 CALM      30.10F
CANADIAN 6E      N/A     78  21  11 W14       29.96F
CHILDRESS 2NNE   N/A     76  20  12 W2        30.00F
CLARENDON 2WSW   N/A     76  17  11 W7        30.02F
CLAUDE 12SW      N/A     73  18  12 SW5       30.04F
DIMMITT 2NE      N/A     74  29  18 SW2       30.05F
FRIONA 2NE       N/A     77  20  12 NW5       30.06F
GOODLETT 3W      N/A     77  26  15 W5        29.98F
HART 3N          N/A     72  24  16 W1        30.06F
HEREFORD 2NW     N/A     74  22  14 S2        30.06F
MCLEAN 1E        N/A     75  14   9 SW7       30.00F
MEMPHIS 1NE      N/A     75  17  11 SW8       30.00F
MULESHOE 2SSW    N/A     77  20  12 SW6       30.06F
OLTON 6S         N/A     74  22  14 W3        30.06F
PALO DURO SP     N/A     76  19  12 S3        30.05F
PAMPA 2E         N/A     74  19  12 W7        30.03F
TULIA 2ENE       N/A     72  29  19 SW6       30.06F
UMBARGER 3NNE    N/A     73  24  15 W6        30.06F
$$

TXZ033>036-039>041-045>048-212200
TEXAS TECH WEST TEXAS MESONET/SOUTH PLAINS

CITY           SKY/WX    TMP DP  RH WIND       PRES   REMARKS
ANDREWS 2NE      N/A     79  30  16 W8        30.06F
ANTON 6SSW       N/A     76  25  15 NW3       30.05F
BROWNFIELD 2S    N/A     77  28  16 W3        30.05F
DENVR CTY 7WNW   N/A     77  27  15 NW6       30.06F
GAIL 2ESE        N/A     76  31  19 SW6       30.02F
LAMESA 2SE       N/A     75  32  20 W7        30.05F
LEVELLAND 4S     N/A     76  21  13 W1        30.06F
LUBBOCK 3WNW     N/A     76  27  16 S6        30.05F
MORTON 1ENE      N/A     78  19  11 SW6       30.06F
ODONNELL 1N      N/A     75  27  16 W5        30.05F
PLAINS 3N        N/A     78  24  13 SW2       30.06F
RALLS 1SE        N/A     72  23  15 S7        30.06F
REESE CENTER     N/A     74  24  15 SW2       30.05F
SEAGRAVES 1SW    N/A     78  29  16 W5        30.06F
SEMINOLE 2NNE    N/A     76  29  17 W7        30.07F
SLATON 2NE       N/A     72  32  23 S6        30.05F
SNYDER 3E        N/A     75  23  14 W6        30.04F
SUNDOWN 8SW      N/A     79  20  11 SW5       30.06F
TAHOKA 3NNE      N/A     74  28  18 SW8       30.04F
WOLFFORTH 6SSW   N/A     76  26  15 SW6       30.05F
$$

TXZ031-032-036>038-042>044-212200-
TEXAS TECH WEST TEXAS MESONET/ROLLING PLAINS

CITY           SKY/WX    TMP DP  RH WIND       PRES   REMARKS
ASPERMONT 3NE    N/A     79  19  10 W3        30.00F
FLUVANNA 3WNW    N/A     74  28  18 SW7       30.03F
GRAHAM 5SSW      N/A     73  30  20 W5        30.04F
GUTHRIE 10WSW    N/A     79  17  10 SW6       30.00F
HASKELL 1NW      N/A     75  31  19 N5        30.00F
JAYTON 1SSE      N/A     76  19  11 W3        30.02F
KNOX CITY 3NW    N/A     78  30  17 SE1       30.00F
LK A HENRY 1NW   N/A     77  21  12 SW6       30.02F
NORTHFIELD 1S    N/A     78  22  12 S9        30.00F
ODELL 4ENE       N/A     76  32  20 CALM      29.99F
PADUCAH 10SW     N/A     78  21  12 SW1       30.00F
POST 1NE         N/A     75  29  18 SW6       30.03F
RRING SPRGS 3N   N/A     75  20  12 W8        30.03F
SEYMOUR 3NW      N/A     74  37  26 NW5       29.99F
SPUR 1W          N/A     76  19  11 SW3       30.02F
WEINERT 2NNE     N/A     73  38  27 NW1       30.01F
WHITE RVR 6NE    N/A     75  19  12 SW6       30.03F
$$

TXZ052-054-060>062-072-078-127-140-154-169-212200-
TEXAS TECH WEST TEXAS MESONET/PERMIAN BASIN/
CONCHO VALLEY/BIG COUNTRY/EDWARDS PLATEAU

CITY           SKY/WX    TMP DP  RH WIND       PRES   REMARKS
COYANOSA 2N      N/A     84  27  12 W12       30.05F
JUNCTION 1SSW    N/A     78  37  22 W6        30.02F
MERTZON 3NNE     N/A     78  36  22 NW7       30.05F
SAN ANGELO 7NW   N/A     77  33  19 W10       30.02F
STRLNG CT 4WSW   N/A     77  35  22 W10       30.05F
ST LAWRNCE 5SW   N/A     77  29  17 W12       30.06F
SWEETWATR 11SW   N/A     74  25  15 W10       30.06S
WALL 1E          N/A     79  34  19 NW14      30.03F
$$

TXZ055-058-074-075-080-082-212200-
TEXAS TECH WEST TEXAS MESONET/FAR WEST/SOUTHWEST MOUNTAINS/TRANS PECOS

CITY           SKY/WX    TMP DP  RH WIND       PRES   REMARKS
PRSMN GAP BBNP   N/A     79  29  16 SW20      30.12F
GUADLPE MTN NP   N/A     73  20  14 W15       30.20F
$$




USA.gov is the U.S. government's official web portal to all federal, state and local government web resources and services.